[[{"header":{"parameterUnit":"m.s-1","parameterCategory":1,"la1":30.2991,"la2":30.254,"lo1":-89.0895,"lo2":-89.0444,"dy":0.0017,"dx":0.0017,"nx":28,"ny":28,"refTime":"2025-09-09T09:00:00:Z","depth":0,"parameterNumber":2,"parameterNumberName":"U-component_of_WINDS"},"data":[0,0,0,0,0,0,0,0,0,0,0,0,0,0,0,0,0,0,0,0,0,0,0,0,0,0,0,0,0,0,0,0,0,0,0,0,0,0,0,0,0,0,0,0,0,0,0,0,0,0,0,0,0,0,0,0,0,0,-3.7953,-3.7955,0,-3.8129,-3.8131,-3.8133,-3.803,-3.8025,-3.802,-3.8015,-3.8196,-3.8205,-3.8215,0,0,0,0,0,0,0,0,0,0,0,0,0,-3.7529,-3.7537,-3.7953,-3.7955,-3.7957,-3.8129,-3.8131,-3.8134,-3.8031,-3.8025,-3.8019,-3.8013,-3.8193,-3.8204,-3.8216,0,0,0,0,0,0,0,0,0,0,0,0,0,-3.771,-3.754,-3.7952,-3.7927,-3.7926,-3.8128,-3.8131,-3.8134,-3.8032,-3.8025,-3.8017,-3.801,-3.8189,-3.8203,-3.8217,-3.8455,0,0,-3.826,-3.8267,0,0,0,0,0,0,0,0,-3.77,-3.7725,-3.7928,-3.7929,-3.7928,-3.805,-3.8048,-3.8242,-3.8034,-3.7992,-3.8015,-3.8006,-3.8154,-3.817,-3.822,-3.8463,-3.8471,-3.8262,-3.827,-3.8276,-3.828,0,0,0,0,0,0,0,-3.7687,-3.7717,-3.8022,-3.7931,-3.7932,-3.7907,-3.7924,-3.8084,-3.8113,-3.7995,-3.7988,-3.801,-3.8152,-3.8206,-3.8223,-3.8474,-3.8261,-3.8274,-3.8283,-3.8288,-3.8924,-3.8932,0,0,0,0,0,0,-3.7676,-3.7707,-3.8017,-3.8028,-3.7793,-3.792,-3.794,-3.8019,-3.8111,-3.8117,-3.8016,-3.8005,-3.8186,-3.8207,-3.8229,-3.8515,-3.8276,-3.829,-3.8298,-3.8915,-3.8926,-3.8935,0,0,0,0,0,0,-3.7668,-3.7705,-3.801,-3.7866,-3.7903,-3.7936,-3.8025,-3.8026,-3.808,-3.8127,-3.8131,-3.8066,-3.8181,-3.8209,-3.84,-3.852,-3.8296,-3.8309,-3.8906,-3.8919,-3.893,-3.9088,0,0,0,0,0,0,-3.7656,-3.7702,-3.7793,-3.7869,-3.7911,-3.8178,-3.8032,-3.8035,-3.8105,-3.8091,-3.8175,-3.8182,-3.8177,-3.8379,-3.8414,-3.8535,-3.832,-3.8895,-3.8911,-3.8926,-3.9073,-3.9105,-3.9132,0,0,0,0,0,-3.7641,-3.7829,-3.7798,-3.7836,-3.8024,-3.8185,-3.8209,-3.8199,-3.8115,-3.8206,-3.8237,-3.8179,-3.8501,-3.84,-3.8438,-3.8565,-3.8887,-3.8907,-3.8925,-3.9059,-3.9098,-3.9132,0,0,0,0,0,0,-3.7766,-3.7839,-3.7804,-3.8023,-3.8099,-3.8167,-3.8281,-3.8241,-3.8342,-3.8325,-3.8309,-3.8329,-3.8529,-3.8566,-3.8452,-3.8802,-3.8681,-3.8709,-3.877,-3.8808,-3.8837,-3.8824,-3.8332,0,0,0,0,0,-3.7819,-3.7943,-3.8,-3.8187,-3.8227,-3.8249,-3.8318,-3.8305,-3.8382,-3.8413,-3.8458,-3.8536,-3.8654,-3.8733,-3.8845,-3.9077,-3.9095,-3.9184,-3.9214,-3.9238,-3.9262,-3.939,-3.9431,-3.8996,-3.8996,-3.8996,0,0,-3.7929,-3.7985,-3.8064,-3.8214,-3.8271,-3.8401,-3.8276,-3.8417,-3.8514,-3.8435,-3.8618,-3.8654,-3.874,-3.8953,-3.905,-3.899,-3.9386,-3.9262,-3.9281,-3.9292,-3.9414,-3.9455,-3.9492,-3.9009,-3.9007,-3.9005,0,0,-3.8197,-3.8251,-3.8414,-3.8474,-3.8563,-3.8576,-3.8615,-3.8691,-3.8712,-3.8896,-3.884,-3.8955,-3.9159,-3.9223,-3.9283,-3.9579,-3.953,-3.9615,-3.9771,-3.9897,-3.9931,-3.9961,-4.0068,-4.0107,-3.9639,-3.964,-3.964,0,-3.8323,-3.8516,-3.8503,-3.865,-3.8718,-3.8654,-3.882,-3.8879,-3.8999,-3.9048,-3.8981,-3.9238,-3.9291,-3.952,-3.9592,-3.9642,-3.9688,-3.9606,-3.9927,-3.9957,-3.9985,-4.0087,-4.0127,-3.9649,-3.9648,-3.9647,-3.9646,0,-3.8667,-3.8802,-3.8923,-3.9043,-3.9125,-3.928,-3.9292,-3.9377,-3.9357,-3.9378,-3.9568,-3.9629,-3.9754,-3.9807,-3.9788,-4.0035,-3.9995,-3.9928,-3.9806,-4.0037,-4.0132,-4.0171,-3.9664,-3.966,-3.9657,-3.9655,0,0,-3.9017,-3.9129,-3.9174,-3.9228,-3.9322,-3.9426,-3.958,-3.9702,-3.9776,-3.9862,-3.9992,-4.0168,-4.0107,-4.0174,-4.0163,-4.0273,-4.0505,-4.0192,-4.0194,-4.0249,-4.0782,-4.0833,-4.0878,-4.0474,-4.0481,-4.0487,-4.0776,0,-3.9291,-3.956,-3.9554,-3.9804,-3.9929,-3.9872,-4.0006,-4.0079,-4.0103,-4.0214,-4.024,-4.0366,-4.0275,-4.0316,-4.0422,-4.0455,-4.0612,-4.0434,-4.0595,-4.0601,-4.0576,-4.0928,-4.0981,-4.125,-4.0813,-4.0819,-4.0823,0,-3.9647,-3.9746,-4.0009,-4.0087,-4.014,-4.026,-4.0373,-4.0479,-4.0562,-4.0572,-4.065,-4.0621,-4.0779,-4.0654,-4.0871,-4.075,-4.0816,-4.0842,-4.0852,-4.0867,-4.0726,-4.0953,-4.1336,-4.1376,-4.0882,-4.0877,-4.0873,0,-3.9877,-4.0076,-4.026,-4.0308,-4.0404,-4.049,-4.0534,-4.0609,-4.0684,-4.0783,-4.0831,-4.0947,-4.1011,-4.1102,-4.1107,-4.1015,-4.1327,-4.1202,-4.1341,-4.1341,-4.1409,-4.1405,-4.1809,-4.1451,-4.1451,-4.145,-4.1449,0,-4.0184,-4.0348,-4.0365,-4.0478,-4.066,-4.0653,-4.0833,-4.0869,-4.0937,-4.1056,-4.1013,-4.1127,-4.1126,-4.1242,-4.1246,-4.1427,-4.1456,-4.1469,-4.1469,-4.1474,-4.1472,-4.1517,-4.1498,-4.1461,-4.1458,-4.1456,-4.1454,0,-4.0471,-4.0489,-4.0686,-4.0762,-4.0784,-4.0916,-4.098,-4.1088,-4.1109,-4.1262,-4.1297,-4.1331,-4.1465,-4.1479,-4.1635,-4.1639,-4.1857,-4.1836,-4.183,-4.1827,-4.1966,-4.1953,-4.2412,-4.2473,-4.2076,-4.2079,-4.2083,0,-4.0666,-4.0791,-4.0881,-4.0958,-4.1007,-4.1132,-4.1209,-4.1207,-4.1289,-4.1394,-4.149,-4.1621,-4.1725,-4.1943,-4.1982,-4.2102,-4.2083,-4.2237,-4.2101,-4.2103,-4.2087,-4.208,-4.2093,-4.2263,-4.2267,-4.227,-4.2273,0,-4.1011,-4.1015,-4.1127,-4.1244,-4.1337,-4.1429,-4.1514,-4.158,-4.159,-4.1684,-4.1822,-4.1903,-4.2063,-4.2194,-4.2313,-4.2358,-4.2319,-4.2316,-4.2355,-4.2361,-4.2353,-4.236,-4.1902,-4.2305,-4.2302,-4.23,-4.2298,-4.2297,-4.1258,-4.1367,-4.1448,-4.1576,-4.1641,-4.1723,-4.1829,-4.1865,-4.1979,-4.211,-4.2103,-4.2255,-4.2337,-4.2492,-4.2547,-4.2667,-4.2615,-4.2671,-4.2686,-4.27,-4.2714,-4.2334,-4.2688,-4.2687,-4.2686,-4.2685,-4.2685,0,-4.1601,-4.1651,-4.1769,-4.1891,-4.1992,-4.1947,-4.2041,-4.2128,-4.2263,-4.2342,-4.2447,-4.2606,-4.2734,-4.2784,-4.2908,-4.2995,-4.298,-4.3028,-4.3022,-4.3033,-4.2752,-4.2707,-4.3038,-4.3038,-4.3038,-4.3038,-4.3038,-4.3038,-4.1791,-4.1974,-4.1988,-4.2204,-4.2252,-4.2402,-4.246,-4.2536,-4.2599,-4.278,-4.2886,-4.2918,-4.2986,-4.3116,-4.3232,-4.3243,-4.3292,-4.3348,-4.3352,-4.3088,-4.3053,-4.3019,-4.2976,-4.3358,-4.3359,-4.3623,-4.3625,-4.3627]},{"header":{"parameterUnit":"m.s-1","parameterCategory":1,"la1":30.2991,"la2":30.254,"lo1":-89.0895,"lo2":-89.0444,"dy":0.0017,"dx":0.0017,"nx":28,"ny":28,"refTime":"2025-09-09T09:00:00:Z","depth":0,"parameterNumber":3,"parameterNumberName":"V-component_of_WINDS"},"data":[0,0,0,0,0,0,0,0,0,0,0,0,0,0,0,0,0,0,0,0,0,0,0,0,0,0,0,0,0,0,0,0,0,0,0,0,0,0,0,0,0,0,0,0,0,0,0,0,0,0,0,0,0,0,0,0,0,0,-1.6833,-1.6832,0,-1.6755,-1.6754,-1.6753,-1.6741,-1.6742,-1.6742,-1.6743,-1.666,-1.6657,-1.6654,0,0,0,0,0,0,0,0,0,0,0,0,0,-1.6966,-1.6964,-1.6833,-1.6832,-1.6831,-1.6755,-1.6754,-1.6753,-1.6741,-1.6742,-1.6743,-1.6743,-1.6661,-1.6657,-1.6654,0,0,0,0,0,0,0,0,0,0,0,0,0,-1.69,-1.6963,-1.6834,-1.6816,-1.6814,-1.6755,-1.6754,-1.6753,-1.6741,-1.6742,-1.6743,-1.6744,-1.6662,-1.6658,-1.6654,-1.6606,0,0,-1.664,-1.6639,0,0,0,0,0,0,0,0,-1.6904,-1.6895,-1.682,-1.6817,-1.6815,-1.6759,-1.677,-1.6703,-1.674,-1.6768,-1.6743,-1.6744,-1.6692,-1.6685,-1.6668,-1.6602,-1.6598,-1.664,-1.6637,-1.6636,-1.6634,0,0,0,0,0,0,0,-1.6908,-1.6899,-1.6802,-1.6819,-1.6815,-1.681,-1.6802,-1.6758,-1.6725,-1.6766,-1.6765,-1.6756,-1.6691,-1.6672,-1.6666,-1.6597,-1.664,-1.6636,-1.6634,-1.6632,-1.6482,-1.648,0,0,0,0,0,0,-1.6917,-1.6902,-1.6805,-1.68,-1.6863,-1.6807,-1.6798,-1.6776,-1.6726,-1.6719,-1.6755,-1.6756,-1.6679,-1.6671,-1.6663,-1.66,-1.6636,-1.6632,-1.6629,-1.6483,-1.6481,-1.648,0,0,0,0,0,0,-1.692,-1.6908,-1.6808,-1.6851,-1.6838,-1.6804,-1.6779,-1.6774,-1.6755,-1.6717,-1.6711,-1.6743,-1.668,-1.6669,-1.6619,-1.6597,-1.663,-1.6626,-1.6485,-1.6482,-1.6481,-1.6476,0,0,0,0,0,0,-1.6924,-1.6909,-1.6893,-1.6851,-1.6835,-1.6767,-1.6778,-1.6771,-1.6748,-1.6748,-1.6704,-1.6698,-1.668,-1.6625,-1.6615,-1.6592,-1.6622,-1.6486,-1.6484,-1.6481,-1.6478,-1.6474,-1.6471,0,0,0,0,0,-1.6928,-1.6895,-1.6892,-1.688,-1.6814,-1.6766,-1.6757,-1.6738,-1.6747,-1.6728,-1.6703,-1.6699,-1.6601,-1.662,-1.6608,-1.6584,-1.6488,-1.6484,-1.6481,-1.648,-1.6475,-1.6471,0,0,0,0,0,0,-1.6936,-1.689,-1.6886,-1.6838,-1.6806,-1.6764,-1.6741,-1.6734,-1.6699,-1.67,-1.6676,-1.6666,-1.6616,-1.6595,-1.6617,-1.6532,-1.6545,-1.6539,-1.6548,-1.6543,-1.6539,-1.6545,-1.6619,0,0,0,0,0,-1.6933,-1.6899,-1.6859,-1.6821,-1.6805,-1.6776,-1.6754,-1.6742,-1.6707,-1.6693,-1.6665,-1.663,-1.6591,-1.6566,-1.6528,-1.6475,-1.6462,-1.6451,-1.6448,-1.6445,-1.644,-1.6404,-1.6398,-1.6469,-1.6469,-1.6469,0,0,-1.6925,-1.6895,-1.6875,-1.6822,-1.6796,-1.6759,-1.6765,-1.6727,-1.6698,-1.6687,-1.6638,-1.6615,-1.6574,-1.6521,-1.6496,-1.6502,-1.6417,-1.6441,-1.6439,-1.6435,-1.64,-1.6394,-1.6388,-1.6467,-1.6468,-1.6468,0,0,-1.689,-1.6866,-1.6829,-1.6802,-1.6762,-1.6741,-1.6732,-1.669,-1.6675,-1.6624,-1.6614,-1.6579,-1.6513,-1.6483,-1.6459,-1.6408,-1.6401,-1.6396,-1.6377,-1.6343,-1.6337,-1.6332,-1.631,-1.6303,-1.6392,-1.6392,-1.6392,0,-1.6885,-1.6831,-1.6811,-1.6772,-1.6747,-1.6735,-1.6695,-1.667,-1.6619,-1.66,-1.6608,-1.6521,-1.6494,-1.6431,-1.6418,-1.64,-1.6386,-1.6401,-1.634,-1.6334,-1.6329,-1.6308,-1.63,-1.6391,-1.6391,-1.6391,-1.6391,0,-1.6825,-1.6787,-1.6761,-1.6712,-1.6684,-1.6645,-1.6616,-1.659,-1.6578,-1.6556,-1.6502,-1.6468,-1.642,-1.6405,-1.6394,-1.6338,-1.6342,-1.6345,-1.6357,-1.6322,-1.6301,-1.6293,-1.639,-1.639,-1.6391,-1.6391,0,0,-1.6796,-1.6733,-1.6723,-1.6698,-1.6651,-1.662,-1.6578,-1.6532,-1.6507,-1.6472,-1.6434,-1.6376,-1.6376,-1.6349,-1.6334,-1.6305,-1.626,-1.631,-1.6308,-1.6299,-1.6192,-1.6189,-1.618,-1.6256,-1.6255,-1.6253,-1.6194,0,-1.6755,-1.6681,-1.666,-1.6597,-1.6558,-1.6544,-1.6506,-1.6471,-1.6448,-1.6411,-1.6385,-1.6343,-1.6349,-1.6331,-1.6302,-1.6273,-1.6238,-1.6277,-1.6217,-1.6215,-1.6226,-1.617,-1.6167,-1.6113,-1.6186,-1.6185,-1.6184,0,-1.6697,-1.6659,-1.6592,-1.6544,-1.6527,-1.6494,-1.6447,-1.6413,-1.637,-1.6355,-1.6322,-1.6309,-1.6261,-1.6276,-1.6207,-1.6234,-1.6207,-1.6189,-1.6186,-1.6178,-1.6197,-1.6158,-1.6096,-1.6087,-1.6172,-1.6173,-1.6174,0,-1.6679,-1.661,-1.656,-1.654,-1.6484,-1.646,-1.6435,-1.6394,-1.6366,-1.6324,-1.6304,-1.6258,-1.6232,-1.6194,-1.6166,-1.6181,-1.6098,-1.6113,-1.6081,-1.6082,-1.6064,-1.6065,-1.5995,-1.6051,-1.6051,-1.6051,-1.6052,0,-1.6634,-1.6593,-1.655,-1.652,-1.6471,-1.6445,-1.6397,-1.6371,-1.6334,-1.6295,-1.6279,-1.6243,-1.621,-1.6167,-1.6145,-1.6089,-1.6078,-1.6062,-1.6056,-1.6062,-1.6064,-1.6044,-1.6046,-1.6049,-1.605,-1.605,-1.6051,0,-1.6606,-1.6577,-1.652,-1.647,-1.6456,-1.6422,-1.6378,-1.6346,-1.632,-1.6271,-1.6258,-1.6218,-1.6167,-1.6135,-1.6072,-1.6056,-1.5993,-1.599,-1.6007,-1.6004,-1.5973,-1.5975,-1.5885,-1.587,-1.594,-1.5939,-1.5938,0,-1.6579,-1.6546,-1.6491,-1.6464,-1.6439,-1.6396,-1.6366,-1.6337,-1.6306,-1.6252,-1.6225,-1.6173,-1.613,-1.6048,-1.6012,-1.5961,-1.5955,-1.5927,-1.5947,-1.5952,-1.595,-1.5952,-1.5946,-1.5923,-1.5923,-1.5922,-1.5922,0,-1.6532,-1.6517,-1.6476,-1.6427,-1.6391,-1.6352,-1.6312,-1.629,-1.6254,-1.6219,-1.6166,-1.6133,-1.6065,-1.6012,-1.5957,-1.5928,-1.5917,-1.5915,-1.5905,-1.591,-1.5919,-1.591,-1.5995,-1.5917,-1.5918,-1.5918,-1.5918,-1.5919,-1.6501,-1.647,-1.6425,-1.6377,-1.6343,-1.6305,-1.6271,-1.624,-1.6195,-1.6138,-1.6123,-1.6067,-1.602,-1.5945,-1.5914,-1.5868,-1.5872,-1.5857,-1.5853,-1.5849,-1.5847,-1.5928,-1.5858,-1.5858,-1.5858,-1.5858,-1.5858,0,-1.6451,-1.642,-1.6376,-1.632,-1.6281,-1.6274,-1.6228,-1.6195,-1.6146,-1.6103,-1.606,-1.5996,-1.5943,-1.5901,-1.5845,-1.5816,-1.5808,-1.5802,-1.5802,-1.5795,-1.5848,-1.5862,-1.5808,-1.5808,-1.5808,-1.5808,-1.5808,-1.5808,-1.642,-1.6365,-1.6344,-1.627,-1.6239,-1.6183,-1.6157,-1.612,-1.6085,-1.6015,-1.597,-1.5943,-1.5899,-1.5839,-1.5788,-1.5777,-1.5756,-1.5749,-1.5736,-1.5787,-1.5792,-1.5797,-1.5809,-1.5745,-1.5745,-1.5686,-1.5686,-1.5685]}]]